Mumbai, India

12:10 PM IST on May 24, 2017 (GMT +0530)
Chhatrapati Shivaji International

Weather History for VABB - March, 2013

Change the Weather History Date:

Tuesday, March 5, 2013

  Actual Average Record
Temperature  
Mean Temperature 82 °F -  
Max Temperature 103 °F 89 °F 103 °F (2013)
Min Temperature 60 °F 72 °F 58 °F (2015)
Cooling Degree Days 16    
Growing Degree Days 32 (Base 50)    
Moisture  
Dew Point 43 °F    
Average Humidity 22    
Maximum Humidity 40    
Minimum Humidity 7    
Precipitation  
Precipitation 0.00 in - - ()
Sea Level Pressure  
Sea Level Pressure 29.85 in    
Wind  
Wind Speed 3 mph ()    
Max Wind Speed 13 mph    
Max Gust Speed -    
Visibility 2.0 miles    
Events      
Averages and records for this station are not official NWS values.
T = Trace of Precipitation, MM = Missing Value Source: Averaged Metar Reports

Daily Weather History Graph

Daily Weather History Graph

Search for Another Location

Airport or City:

Trip Planner

Search our weather history database for the weather conditions in past years. The results will help you decide how hot, cold, wet, or windy it might be!

Date:

Astronomy

Mar. 05, 2013 Rise Set
Actual Time 6:55 AM IST 6:45 PM IST
Civil Twilight 6:33 AM IST 7:07 PM IST
Nautical Twilight 6:07 AM IST 7:32 PM IST
Astronomical Twilight 5:42 AM IST 7:58 PM IST
Moon 1:05 AM IST (3/5) 12:32 PM IST (3/5)
Length of Visible Light 12h 34m
Length of Day
11h 50m
Last Quarter, 46% of the Moon is Illuminated
Mar 5
Last Quarter
Mar 12
New
Mar 19
First Quarter
Mar 27
Full
Apr 3
Last Quarter

Hourly Weather History & Observations

Time (IST) Temp. Dew Point Humidity Pressure Visibility Wind Dir Wind Speed Gust Speed Precip Events Conditions
12:40 AM 80.6 °F 41.0 °F 24% 29.89 in 1.6 mi Calm Calm - N/A   Smoke
1:10 AM 78.8 °F 42.8 °F 28% 29.89 in 1.4 mi Calm Calm - N/A   Smoke
1:40 AM 77.0 °F 42.8 °F 29% 29.86 in 1.4 mi Calm Calm - N/A   Smoke
2:10 AM 75.2 °F 44.6 °F 34% 29.86 in 1.4 mi Calm Calm - N/A   Smoke
2:30 AM 65 °F 47 °F 40% 29.86 in 1 mi Calm Calm - -   Smoke
2:40 AM 75.2 °F 44.6 °F 34% 29.86 in 1.4 mi Calm Calm - N/A   Smoke
3:10 AM 77.0 °F 44.6 °F 32% 29.83 in 1.4 mi ESE 3.5 mph - N/A   Smoke
3:40 AM 77.0 °F 44.6 °F 32% 29.83 in 1.4 mi East 3.5 mph - N/A   Smoke
4:10 AM 77.0 °F 42.8 °F 29% 29.83 in 1.4 mi East 3.5 mph - N/A   Smoke
4:40 AM 75.2 °F 42.8 °F 31% 29.83 in 1.4 mi Calm Calm - N/A   Smoke
5:30 AM 64 °F 46 °F 40% 29.84 in 1 mi Calm Calm - -   Smoke
5:40 AM 80.6 °F 39.2 °F 23% 29.83 in 1.6 mi Calm Calm - N/A   Smoke
6:10 AM 77.0 °F 41.0 °F 28% 29.86 in 1.6 mi Calm Calm - N/A   Smoke
6:40 AM 77.0 °F 39.2 °F 26% 29.86 in 1.6 mi ESE 5.8 mph - N/A   Smoke
8:30 AM 74 °F 45 °F 25% 29.91 in 1 mi Calm Calm - -   Smoke
9:40 AM 89.6 °F 39.2 °F 17% 29.92 in 2.2 mi ENE 6.9 mph - N/A   Smoke
10:10 AM 91.4 °F 39.2 °F 16% 29.92 in 2.2 mi ENE 6.9 mph - N/A   Smoke
11:10 AM 95.0 °F 39.2 °F 14% 29.92 in 2.2 mi South 3.5 mph - N/A   Smoke
11:30 AM 97 °F 42 °F 8% 29.92 in 2 mi North 4.6 mph - -  
11:40 AM 96.8 °F 39.2 °F 14% 29.92 in 2.5 mi East 5.8 mph - N/A   Smoke
12:10 PM 98.6 °F 42.8 °F 15% 29.89 in 2.5 mi East 8.1 mph - N/A   Smoke
12:40 PM 98.6 °F 42.8 °F 15% 29.89 in 2.5 mi ESE 5.8 mph - N/A   Smoke
1:40 PM 100.4 °F 46.4 °F 16% 29.83 in 3.1 mi West 10.4 mph - N/A   Smoke
2:10 PM 98.6 °F 39.2 °F 13% 29.83 in 3.1 mi West 12.7 mph - N/A   Smoke
2:30 PM 100 °F 41 °F 7% 29.83 in 1 mi SW 6.9 mph - -   Smoke
2:40 PM 98.6 °F 37.4 °F 12% 29.83 in 3.1 mi West 10.4 mph - N/A   Smoke
3:10 PM 96.8 °F 41.0 °F 15% 29.80 in 3.1 mi West 12.7 mph - N/A   Smoke
3:40 PM 96.8 °F 44.6 °F 17% 29.80 in 3.1 mi West 11.5 mph - N/A   Smoke
4:10 PM 95.0 °F 42.8 °F 16% 29.80 in 3.1 mi WNW 9.2 mph - N/A   Smoke
4:40 PM 95.0 °F 42.8 °F 16% 29.80 in 3.1 mi NW 3.5 mph - N/A   Smoke
5:10 PM 93.2 °F 51.8 °F 24% 29.80 in 3.1 mi NW 6.9 mph - N/A   Smoke
5:30 PM 93 °F 47 °F 12% 29.80 in 2 mi North 4.6 mph - -  
5:40 PM 93.2 °F 48.2 °F 21% 29.80 in 3.1 mi NW 8.1 mph - N/A   Smoke
6:10 PM 91.4 °F 48.2 °F 23% 29.80 in 2.8 mi NNW 6.9 mph - N/A   Smoke
6:40 PM 89.6 °F 44.6 °F 21% 29.83 in 2.5 mi NW 4.6 mph - N/A   Smoke
7:10 PM 89.6 °F 41.0 °F 18% 29.83 in 2.5 mi NNW 6.9 mph - N/A   Smoke
7:40 PM 89.6 °F 39.2 °F 17% 29.83 in 2.5 mi North 4.6 mph - N/A   Smoke
8:10 PM 89.6 °F 39.2 °F 17% 29.86 in 2.5 mi NNW 4.6 mph - N/A   Smoke
8:30 PM 85 °F 44 °F 15% 29.89 in 1 mi North 4.6 mph - -   Smoke
8:40 PM 89.6 °F 39.2 °F 17% 29.86 in 2.5 mi Variable 2.3 mph - N/A   Smoke
9:40 PM 89.6 °F 44.6 °F 21% 29.89 in 1.6 mi NNW 3.5 mph - N/A   Smoke
10:40 PM 86.0 °F 44.6 °F 23% 29.89 in 1.6 mi North 3.5 mph - N/A   Smoke
11:10 PM 87.8 °F 44.6 °F 22% 29.89 in 1.5 mi North 3.5 mph - N/A   Smoke
11:30 PM 72 °F 52 °F 38% 29.90 in 1 mi Calm Calm - -   Smoke